COSMOS 886 DEB, 9649

Orbit data source: Space-Track

COSMOS 886 DEB, 9649 is space debris in LEO originally from a launch on Mon, 27 Dec 1976 UTC launched from the Tyuratam Missile And Space Complex (TTMTR). Debris objects in space refer to the collection of defunct objects orbiting the Earth. Examples of debris include non-operational satellites, rocket bodies, and fragments generated from explosions, collisions, or faulty payload assembly.

Loading next visibility...
Identifier
9649, 1976-126F
Orbit
LEO
Country
Flag of CISCIS
Related business
Manufacturer
Unknown
Mission
Spacecraft
Bus & Motor
Unknown
Mass
Unknown
Launch date (UTC)
1976-12-27 (49 years ago)
Launch vehicle
Unknown
Launch site
Tyuratam Missile And Space Complex (TTMTR)
Object type
Payload
Rocket body
Debris
Shape & HBR
Unknown shape, 0.1 m
Radar Cross Section
Medium (>0.1 m² and <1 m²)

Expand to show TLE details & history
Last TLE update: 9 hours ago

TLE from 9 hours ago
0 COSMOS 886 DEB
1  9649U 76126F   26130.19119097 -.00000014  00000-0  42481-4 0  9998
2  9649  65.9326   2.6973 0919549 296.9116  54.0823 12.71687994258123
Epoch: 2026-05-10T04:35Z
TLE epoch observation values (Epoch: 2026-05-10T04:35:18.899Z)
Latitude
-0.00013°
Longitude
65.87068°
Altitude
1,005.296 km
Speed
7.523 km/s
True Right ascension
00h 10m 47s
True Declination
0° 00' 00"
Sunlit
Object was in daylight at epoch
Visualization orbit readout
Latitude
Unknown
Longitude
Unknown
Altitude
Unknown
Speed
Unknown
Apparent Right ascension
Unknown
Apparent Declination
Unknown
Sunlit
N/A
Visualization observer readout
Local Sidereal Time
21:18:55
Azimuth
Unknown
Elevation
Unknown
Doppler factor
Unknown
Orbital elements
Apogee altitude
2,086.448 km
Perigee altitude
660.822 km
Semi-major axis
7,751.772 km
Eccentricity
0.09195
Inclination
65.9326°
RAAN
2.6973°
Arg. of periapsis
296.9116°
True anomaly
63.19224°
Mean anomaly
54.0823°
Eccentric anomaly
58.5783°
Mean motion
3.18011 °/min
Orbital period
113.2 mins
BSTAR
0.000042481
Loading maneuver chart data...
Computing Atmospheric mass density...
Loading historical data...
Loading historical data...
Loading historical data...
Loading historical data...
Loading historical data...
Loading historical data...
Loading historical data...

Documentation

Showing up to 5 results
|